Regional Weather Roundup
Issued by NWS

Home | Current Version | Previous Version | Text Only | Print | Product List | Glossary On
Versions: 1 2 3 4 5 6 7 8 9 10 11 12 13 14 15 16 17 18 19 20 21 22 23 24 25 26 27 28 29 30 31 32 33 34 35 36 37 38 39 40 41 42 43 44 45 46 47 48 49 50
000
ASUS43 KLSX 190807
RWRMO

WEATHER SUMMARY FOR MISSOURI
NATIONAL WEATHER SERVICE SPRINGFIELD MO
200 AM CST SUN NOV 19 2017

NOTE: "FAIR" INDICATES FEW OR NO CLOUDS BELOW 12,000 FEET WITH NO
       SIGNIFICANT WEATHER AND/OR OBSTRUCTIONS TO VISIBILITY.
       CURRENT SKY AND/OR WEATHER CONDITIONS ARE NOT AVAILABLE FOR
       CHILLICOTHE AND FARMINGTON.

MOZ001>031-035>038-043-044-053-054-190900-
...NORTHERN AND WESTERN MISSOURI...

CITY           SKY/WX    TMP DP  RH WIND       PRES   REMARKS
KANSAS CTY INT CLEAR     32  25  75 NW8       30.20F WCI  25
KANSAS C DTWN  CLEAR     36  26  67 W5        30.22S
LEE`S SUMMIT   CLEAR     33  25  72 NW7       30.21S WCI  27
ST JOSEPH      CLEAR     30  24  78 NW8       30.22S WCI  22
CHILLICOTHE      N/A     32  21  64 NW7       30.19R WCI  26
KIRKSVILLE     CLEAR     30  22  72 NW10      30.13R WCI  21

$$
MOZ066>068-077>081-088>096-101>105-190900-
...SOUTHWEST MISSOURI...

CITY           SKY/WX    TMP DP  RH WIND       PRES   REMARKS
SPRINGFIELD    CLEAR     36  29  75 NW6       30.18S
JOPLIN         CLEAR     36  30  79 CALM      30.23F
BRANSON        CLEAR     39  27  60 NW8       30.20R

$$
MOZ032>034-039>042-045>050-055>058-069>072-190900-
...CENTRAL MISSOURI...

CITY           SKY/WX    TMP DP  RH WIND       PRES   REMARKS
COLUMBIA       CLEAR     34  26  72 NW9       30.15R WCI  27
JEFFERSON CITY PTCLDY    36  26  67 NW6       30.17R
ROLLA          CLEAR     34  25  69 NW13      30.13S WCI  25
SEDALIA        CLEAR     35  24  64 NW8       30.20R WCI  29
WHITEMAN AFB   CLEAR     33  19  55 NW5       30.16R WCI  29
WARRENSBURG    CLEAR     32  27  80 NW5       30.20S WCI  27
OSAGE BEACH    CLEAR     37  22  54 NW7G17    30.18R

$$
MOZ051-052-059>065-190900-
...EAST CENTRAL MISSOURI...

CITY           SKY/WX    TMP DP  RH WIND       PRES   REMARKS
ST LOUIS INTL  CLEAR     35  23  61 NW10      30.09R WCI  27
SPIRIT OF STL  CLEAR     36  27  69 NW8       30.10S WCI  30
ST CHARLES     CLEAR     36  23  59 NW17      30.09S WCI  26

$$
MOZ072>076-082>087-097>100-106>115-190900-
...SOUTH CENTRAL AND SOUTHEAST MISSOURI...

CITY           SKY/WX    TMP DP  RH WIND       PRES   REMARKS
CAPE GIRARDEAU CLEAR     40  29  64 NW14G23   30.09R
FARMINGTON     PTCLDY    37  27  67 NW12G18   30.09S WCI  29
POPLAR BLUFF   CLEAR     42  29  59 NW10      30.11R
WEST PLAINS    CLEAR     39  20  46 NW9G20    30.14R

$$


USA.gov is the U.S. government's official web portal to all federal, state and local government web resources and services.